Temp
18 18 19 19 19 19 19 19 19 19 20 20 20 20 20 20 20 20 20 21 21 21 21 21 21 22 22 22 22 22 23 23 23 22 22 22 22 22 22 23 23 23 23 23 23 23 22 22 22 22 23 22 18 18 19 17 17 20 22 22 22 21 21 21 21 21 21 22 22 21 19 20 22 21 19 18 20 21 20 21 21 20 19 19 18 16 16 17
19 19 19 19 19 18 18 19 19 19 20 20 20 20 20 20 20 20 20 20 21 21 21 21 21 22 21 22 22 22 23 23 23 22 21 21 21 22 22 22 23 23 23 23 23 22 23 22 20 21 22 21 19 19 20 18 18 21 21 21 22 21 21 20 21 21 21 22 21 20 19 19 21 20 19 21 22 21 21 22 21 22 22 20 16 14 15 15
18 18 19 19 18 18 18 18 19 19 19 20 19 20 20 20 20 20 20 20 20 21 21 21 21 21 21 22 22 22 23 23 23 22 21 21 22 22 22 23 23 23 23 23 23 22 23 22 21 21 22 22 19 19 22 20 19 19 20 23 23 21 21 19 19 21 20 20 21 21 18 18 20 19 19 21 21 21 22 22 22 22 22 19 14 10 11 11
18 18 19 19 19 18 18 18 18 18 18 19 19 20 20 20 20 20 20 20 20 21 21 21 21 21 21 22 22 23 23 23 23 22 22 22 22 22 22 23 23 23 23 22 22 22 22 22 21 21 22 22 19 19 21 20 19 19 20 24 21 18 20 21 19 20 19 18 19 20 18 19 19 17 19 20 20 21 21 21 21 20 19 17 13 9 9 9
17 18 19 19 19 19 19 18 18 18 18 18 19 19 20 20 20 20 20 20 20 20 21 20 21 21 21 22 22 23 23 23 23 22 22 22 23 23 23 23 23 23 22 22 22 22 22 21 21 21 22 22 20 21 21 18 18 20 20 21 19 17 21 22 19 19 18 17 18 20 20 20 18 18 19 20 21 21 19 18 17 16 14 13 11 9 8 8
16 18 19 19 19 20 20 19 18 17 18 18 18 18 19 20 20 19 19 19 20 20 20 20 20 21 21 21 21 23 23 23 23 23 23 23 23 23 23 23 23 23 22 22 22 21 22 21 21 22 21 21 21 21 20 17 17 21 21 18 18 17 20 21 18 18 17 18 20 20 19 18 19 19 18 19 20 17 13 12 12 11 10 9 8 8 8 7
15 17 18 18 18 19 19 19 18 17 17 17 18 18 18 19 19 19 19 19 19 20 20 20 20 20 21 21 21 22 22 23 23 22 23 23 23 23 23 23 22 23 22 22 21 21 21 22 22 21 21 22 20 20 19 17 18 21 21 19 18 17 19 20 18 17 17 19 20 18 17 18 20 20 18 18 17 12 10 9 9 8 8 8 8 7 7 7
13 14 16 17 17 17 17 17 17 17 17 17 17 17 17 18 18 18 18 19 19 19 19 19 20 20 21 21 21 21 21 22 22 22 22 22 23 23 22 22 22 22 21 22 21 20 20 22 21 20 21 21 20 20 18 18 19 20 21 20 18 17 19 19 18 18 18 18 17 16 18 20 19 18 18 18 14 10 9 9 8 8 8 7 7 7 7 7
11 11 13 14 16 16 16 16 16 17 17 17 17 17 17 17 18 18 18 18 18 19 19 19 20 20 20 20 20 21 21 22 22 21 22 22 22 22 22 22 22 22 21 21 21 21 21 21 21 20 22 20 19 20 18 20 21 19 20 19 19 19 19 18 18 20 19 18 17 17 20 20 17 17 19 16 12 10 9 9 8 8 8 7 7 7 7 7
10 10 11 12 13 14 15 16 16 17 17 16 16 17 17 17 17 17 18 18 18 18 18 19 19 19 20 20 20 21 21 21 21 21 21 21 21 21 21 21 21 22 21 20 20 21 21 21 19 18 21 20 19 19 18 20 20 18 19 19 19 19 18 18 19 19 18 18 17 19 21 18 16 18 20 16 12 10 11 10 8 7 7 7 7 6 6 6
10 11 10 10 11 12 13 15 16 17 17 16 17 17 17 17 17 17 17 17 18 18 18 18 19 19 19 20 20 21 21 21 21 21 21 21 21 21 21 21 21 21 21 19 19 20 21 20 18 17 20 20 19 18 18 18 18 18 18 19 19 19 19 19 19 17 17 19 17 17 20 18 17 19 19 15 10 10 12 10 7 7 7 6 7 6 6 6
11 10 10 10 10 11 11 14 16 16 16 16 17 17 17 16 17 17 17 17 17 18 18 18 19 19 18 19 20 21 21 21 21 21 21 21 21 21 21 21 20 21 21 19 19 20 20 20 20 20 21 20 19 20 18 16 17 17 18 20 20 19 20 19 18 17 17 19 17 17 21 19 18 18 16 13 10 10 11 10 8 7 6 6 6 6 6 6
11 10 10 10 10 10 11 13 14 15 15 15 16 17 16 16 17 17 17 17 17 17 18 18 18 18 18 19 19 20 20 20 20 20 20 20 21 20 20 20 20 20 20 20 20 20 20 20 21 20 19 19 20 19 18 16 16 18 17 19 19 20 21 18 17 17 18 18 16 18 22 20 17 15 14 12 11 13 12 9 7 7 6 6 6 6 6 6
11 11 10 10 10 11 12 12 12 12 12 13 15 16 16 16 16 16 17 17 17 17 18 18 18 18 18 19 20 19 19 19 19 19 19 20 20 20 19 19 20 20 20 20 20 20 20 20 20 19 17 18 19 17 18 18 17 19 18 17 18 19 21 19 16 17 20 18 16 19 21 20 17 14 12 10 10 14 12 8 7 7 6 6 6 6 6 5
11 11 10 10 10 11 12 12 11 11 11 12 14 15 15 16 16 16 16 17 17 17 17 17 17 17 17 19 19 18 18 19 18 18 19 19 19 19 18 19 19 19 19 20 20 19 19 20 20 19 17 16 17 18 19 19 18 18 19 19 17 17 20 20 16 16 19 18 17 20 21 20 18 13 11 9 9 12 11 8 7 6 6 6 6 5 5 5
11 11 11 10 10 11 12 11 11 11 11 12 13 14 15 16 16 16 16 16 16 16 17 16 16 17 18 19 18 18 18 18 18 18 18 18 19 19 18 18 19 19 19 19 19 19 19 19 17 16 17 17 18 19 19 19 18 17 18 20 18 18 19 19 18 15 17 18 18 19 20 20 18 12 10 8 7 10 11 8 6 6 6 6 5 5 5 5
11 11 11 10 10 10 11 11 11 11 10 11 13 14 15 15 15 16 16 15 16 16 16 16 16 17 18 18 18 18 17 17 17 17 18 18 18 19 18 17 16 17 18 18 19 19 18 18 16 15 17 17 17 19 19 19 19 17 16 18 18 17 18 19 20 16 16 18 19 19 19 20 18 11 9 8 7 10 10 7 7 6 6 5 5 5 5 4
11 11 10 10 10 10 11 10 10 10 10 11 12 14 15 15 15 15 15 15 15 15 16 16 16 18 19 18 18 18 16 16 17 16 17 18 18 18 18 17 15 17 18 18 18 18 17 17 16 18 18 16 17 19 19 19 20 19 18 18 18 17 17 18 19 18 17 19 19 18 18 19 18 13 9 8 7 10 9 6 6 6 6 6 5 5 5 4
11 11 10 10 10 10 10 10 10 10 10 11 12 14 14 14 14 14 14 14 15 17 18 17 17 19 20 18 16 16 16 16 16 16 17 17 17 18 18 17 16 17 18 18 18 17 17 17 17 18 18 17 18 18 19 19 19 19 18 19 19 18 18 17 17 17 16 18 18 18 18 19 18 15 11 8 7 8 7 6 7 6 6 6 5 5 4 4
11 11 10 10 9 10 10 10 10 10 11 11 12 13 15 15 16 16 13 13 15 17 18 18 17 19 19 17 16 15 16 16 16 16 16 17 17 18 17 17 17 18 18 18 18 16 16 18 18 18 18 18 18 17 18 18 18 18 17 18 18 18 18 17 17 16 15 17 18 16 17 17 17 14 10 7 8 8 7 7 7 6 6 5 5 5 4 4
11 10 10 9 9 10 10 10 10 10 11 11 12 13 15 16 17 17 15 14 14 14 16 16 16 17 18 17 15 16 17 17 16 15 16 17 17 18 17 16 18 18 16 16 16 15 16 17 18 18 18 18 17 16 16 17 17 17 17 17 17 16 17 16 17 15 14 17 17 15 16 18 17 13 8 7 9 8 7 7 7 6 6 5 5 5 4 4
11 10 10 10 10 10 10 10 10 10 11 11 12 12 13 15 17 17 16 17 16 13 14 14 14 16 16 16 16 17 18 18 16 15 16 16 17 18 17 16 18 17 15 15 16 16 16 16 18 17 16 16 16 15 16 17 17 17 16 17 17 16 16 16 15 14 14 16 17 15 16 18 15 10 7 7 7 6 5 6 6 6 5 5 5 4 4 4
11 10 10 10 10 10 10 10 10 11 11 11 11 11 13 15 16 16 16 17 16 15 14 14 15 15 15 15 16 16 18 18 18 16 15 16 17 17 17 17 17 16 15 16 17 17 16 17 17 16 15 16 16 15 16 16 16 16 16 16 16 16 17 18 16 14 14 14 15 15 15 17 13 8 7 6 6 6 5 5 5 5 5 4 4 4 4 4
11 10 10 9 10 10 10 10 11 11 11 11 11 13 14 15 15 16 16 16 16 15 14 14 14 15 16 15 16 17 17 17 18 17 15 16 17 16 17 17 16 16 16 16 17 17 17 17 14 14 15 16 16 15 15 16 16 15 15 16 17 16 16 18 16 15 14 13 14 15 16 17 15 12 10 7 6 6 5 5 5 5 4 4 4 3 3 3
11 10 10 10 10 10 10 10 11 11 11 11 12 14 15 15 15 16 16 16 16 15 14 14 14 15 16 16 16 17 17 16 17 16 15 16 17 16 17 16 16 17 16 15 15 16 17 15 14 15 15 15 16 15 15 16 16 16 16 16 16 17 17 16 15 15 16 16 14 14 18 19 17 15 11 7 7 7 6 6 6 5 5 5 4 4 3 3
11 11 10 10 10 10 10 11 11 11 11 11 13 15 15 15 15 16 16 16 15 15 15 16 16 16 17 15 15 16 17 16 14 13 14 16 16 17 17 16 15 16 15 15 15 15 16 14 14 16 16 15 16 15 15 15 15 16 16 15 15 15 16 15 16 16 17 17 13 12 17 19 18 17 11 7 8 7 6 6 6 6 5 5 4 4 4 3
12 11 11 10 10 10 10 11 11 11 12 13 15 15 15 15 15 16 17 16 16 16 16 15 15 17 16 14 14 16 17 16 13 13 14 15 16 16 17 15 15 15 14 15 16 15 15 14 14 15 16 15 15 15 15 14 16 17 14 14 14 15 15 15 15 16 16 15 14 13 15 16 17 17 10 7 9 8 7 7 7 6 6 5 5 4 4 3
12 11 11 11 10 10 11 11 11 11 13 14 15 15 15 15 15 16 17 16 17 17 16 15 15 15 15 13 14 16 15 14 15 14 12 14 15 16 17 16 16 16 14 15 17 15 14 15 15 15 15 14 15 16 14 14 17 16 12 12 14 14 14 14 15 15 14 14 16 15 15 15 16 15 9 8 10 9 8 8 7 7 6 5 5 4 4 3
12 11 11 11 11 10 11 11 11 12 13 14 14 14 15 15 15 16 16 16 18 18 16 15 15 14 13 13 14 14 13 13 15 14 12 14 15 15 15 15 15 16 13 14 17 15 13 13 14 14 15 15 14 14 12 15 17 13 10 11 12 12 13 13 14 15 14 14 17 16 15 16 17 16 12 10 12 12 10 9 8 7 6 5 5 4 4 3
12 12 11 11 11 10 11 11 11 12 13 13 13 14 14 15 16 16 14 17 20 17 15 15 15 14 13 14 14 14 14 13 13 13 13 15 14 14 14 13 14 15 14 14 15 15 13 11 11 14 15 14 13 10 9 12 13 11 12 14 14 13 13 13 13 14 15 15 16 14 14 16 16 17 15 13 14 14 11 10 8 7 6 6 5 5 4 4
12 12 11 11 11 11 11 11 11 12 12 13 13 13 14 14 14 15 15 18 20 16 14 14 14 13 13 14 14 13 14 13 13 14 14 14 14 14 14 14 15 15 14 15 14 14 13 12 13 13 12 11 12 11 9 9 9 12 15 16 16 15 15 14 14 14 16 17 15 11 11 14 16 17 16 14 12 11 11 11 9 7 7 6 5 5 4 4
12 12 11 11 11 11 11 11 12 12 11 12 13 13 14 14 14 16 16 18 19 17 15 15 13 13 13 14 14 13 13 13 13 14 13 13 14 14 14 15 15 15 14 14 14 14 14 14 14 13 11 12 14 14 11 11 11 13 16 16 16 16 15 16 15 14 15 16 13 11 12 14 14 17 17 15 13 10 9 10 8 7 7 6 5 5 4 4
12 12 11 11 11 11 11 12 12 12 11 12 12 13 13 14 15 16 16 18 19 16 15 14 13 13 13 14 14 13 13 14 13 13 12 13 13 13 14 14 14 16 15 14 14 15 15 14 13 14 13 13 15 16 14 14 13 14 16 17 17 16 15 16 14 13 14 15 12 10 12 13 14 16 15 13 12 8 6 7 7 8 7 7 6 4 4 4
12 12 11 11 11 11 11 12 12 12 11 11 12 13 13 14 16 16 16 17 16 15 14 14 13 13 14 14 14 13 14 14 13 13 12 12 13 13 14 13 12 15 15 14 14 15 16 16 14 15 14 13 15 15 15 15 13 13 14 16 16 16 17 17 15 15 16 15 12 10 13 16 17 14 9 7 6 4 5 6 6 7 7 6 5 4 3 3
12 12 11 11 11 11 11 11 12 12 11 11 12 13 13 14 15 15 16 16 15 14 14 13 13 13 13 14 13 13 15 14 12 12 12 13 13 13 13 13 13 14 15 15 15 14 16 17 14 12 11 12 14 13 13 14 14 12 12 14 16 17 17 15 13 13 14 14 13 12 14 15 14 10 5 4 5 4 5 5 5 7 6 5 5 3 3 3
12 11 11 11 11 11 11 11 12 11 11 11 12 13 13 14 14 15 16 16 16 15 14 14 14 14 14 13 13 13 14 14 12 13 12 12 13 12 13 14 13 13 15 17 16 14 15 16 13 11 11 11 12 12 12 14 15 13 12 15 15 14 16 15 12 10 11 14 14 13 14 14 13 11 7 5 6 6 5 5 5 6 5 5 5 4 3 3
11 11 11 11 11 11 11 11 11 11 11 12 13 13 13 14 14 15 15 15 15 15 15 16 16 15 14 14 13 13 14 14 13 13 13 13 14 13 13 14 14 13 15 16 16 15 16 16 12 12 13 11 8 10 12 12 13 14 14 15 13 13 15 16 14 13 11 13 14 12 14 15 15 15 10 7 9 8 5 5 5 5 5 5 5 4 4 3
11 10 10 11 11 11 11 11 11 11 11 12 13 13 13 13 14 14 14 14 15 15 16 17 17 16 15 14 14 13 14 14 13 13 13 13 15 15 14 15 14 13 14 15 16 16 16 17 13 10 12 11 9 12 14 12 11 13 14 14 14 15 16 14 15 15 14 14 14 13 12 13 14 16 13 11 12 10 6 4 5 5 5 5 5 5 4 3
10 10 11 10 10 11 11 11 11 11 12 13 13 13 13 13 13 14 13 14 15 15 16 16 16 16 15 15 15 13 14 14 12 13 14 14 15 15 14 15 14 13 14 15 16 15 15 17 15 11 10 12 12 13 15 13 12 12 13 13 13 15 15 14 14 15 15 14 14 14 14 14 14 14 16 16 14 11 8 5 5 5 5 5 6 5 4 4
10 11 11 9 9 10 10 10 10 11 12 13 13 13 13 13 13 13 12 13 14 14 15 16 16 15 15 14 14 14 14 14 12 13 15 14 15 15 14 15 14 12 12 14 15 15 15 16 16 12 10 12 13 14 14 14 13 13 13 13 13 13 13 14 13 13 14 15 14 14 14 15 14 12 15 17 13 9 8 7 6 5 5 6 6 5 5 4
10 12 10 7 8 9 9 10 11 11 12 13 13 13 13 13 13 12 11 12 13 13 13 15 15 15 14 14 14 14 14 13 12 13 15 14 15 16 14 14 14 13 12 14 15 15 15 15 15 13 11 13 14 12 10 12 13 13 14 14 14 13 13 14 13 12 12 13 14 13 13 15 14 10 11 13 10 8 7 7 7 6 6 6 6 5 5 4
11 12 9 7 8 9 10 11 11 11 12 12 12 13 12 12 13 12 11 12 12 12 12 13 13 14 14 14 14 13 13 13 13 13 15 14 15 16 12 10 12 13 13 14 14 14 13 14 14 13 12 12 11 8 6 8 10 12 13 13 13 14 14 15 14 12 11 11 11 11 12 14 11 7 8 9 8 7 7 6 6 6 6 6 5 5 5 4
11 10 7 6 8 9 10 11 10 11 12 11 11 12 11 12 12 12 11 12 12 12 12 12 13 13 13 13 13 13 14 14 13 13 14 14 14 12 9 8 11 13 14 14 13 13 13 14 14 13 12 11 10 8 7 7 10 12 12 11 12 13 14 15 14 13 12 12 11 10 12 14 11 7 6 7 6 6 6 6 6 6 6 6 5 6 5 4
9 8 7 7 8 8 10 11 11 11 11 10 10 11 10 11 11 11 11 12 12 12 12 12 12 13 13 12 12 13 13 13 13 13 13 14 13 8 7 8 10 12 13 13 14 14 14 14 13 13 12 12 11 11 10 10 11 12 11 10 11 12 12 12 11 12 12 12 13 12 13 14 11 7 6 6 6 7 6 5 6 6 6 6 6 6 5 5
9 8 7 7 7 8 10 11 11 11 10 10 10 10 10 10 10 10 11 11 11 11 12 12 11 12 12 11 12 12 12 12 13 12 12 12 10 8 7 8 9 11 11 11 13 14 14 13 13 13 13 12 12 12 12 12 11 11 11 10 10 11 12 12 12 12 12 12 12 12 13 14 11 8 9 8 7 9 8 5 5 6 6 6 6 6 5 5
10 10 8 7 7 8 8 9 10 11 11 10 10 10 10 10 9 9 10 11 11 11 11 11 11 11 11 11 12 12 11 11 11 11 11 11 10 8 7 7 8 9 9 9 11 13 13 13 13 14 14 13 14 13 12 12 12 12 12 11 11 11 11 12 12 12 12 12 12 13 13 14 12 11 11 10 9 10 10 7 5 6 5 5 5 5 5 5
11 11 9 9 9 8 8 8 9 11 10 10 10 9 9 10 9 9 10 10 10 10 10 10 10 11 11 11 10 10 10 10 10 10 10 10 9 8 7 7 8 8 9 9 10 12 13 13 12 13 14 13 14 13 12 12 13 13 13 13 12 10 10 11 11 12 12 12 12 13 13 13 14 12 12 12 12 11 10 9 7 7 6 5 5 5 5 5
9 10 9 9 10 9 9 8 9 9 9 10 10 9 9 9 9 9 9 9 10 10 10 9 9 10 10 10 10 10 9 9 9 9 9 9 9 8 8 8 8 8 9 10 10 12 13 13 12 12 13 12 12 12 11 12 13 13 13 13 12 10 9 10 10 11 12 12 12 13 12 12 13 12 12 13 13 12 12 10 8 7 6 5 5 5 5 5
7 8 7 8 9 9 9 9 8 9 9 9 9 8 8 9 9 9 8 8 8 9 10 9 9 9 9 9 10 10 9 10 10 9 9 9 9 9 9 9 9 8 9 10 10 11 12 12 11 11 12 12 10 10 10 11 11 11 11 12 11 10 9 10 10 10 11 11 12 12 10 11 11 11 12 12 12 11 10 8 6 6 6 6 6 5 5 5
7 7 7 7 8 8 8 8 8 8 8 8 8 8 8 8 8 8 8 8 8 8 9 9 8 8 8 8 8 9 10 10 10 9 9 9 9 9 9 10 10 8 8 10 10 10 11 11 10 10 12 11 8 8 9 9 10 11 11 11 10 9 9 9 9 10 9 10 10 10 9 10 10 11 11 11 10 9 9 8 8 7 7 7 6 5 5 4
5 5 6 8 8 7 7 7 7 8 7 7 8 8 7 8 8 8 7 8 9 8 8 8 8 7 7 7 7 8 9 9 9 9 10 9 9 10 10 10 11 9 9 9 9 10 10 9 9 10 11 10 8 8 8 8 8 9 9 10 9 9 9 9 8 9 9 10 10 9 9 10 10 10 10 10 9 9 9 9 9 8 7 6 6 6 5 4
4 4 5 8 8 7 7 7 7 7 8 8 8 8 8 8 8 8 8 8 8 8 8 7 7 7 7 7 7 8 9 10 10 9 9 9 10 10 10 10 11 10 9 9 9 9 9 9 9 10 10 9 8 7 8 8 8 9 10 11 10 9 9 9 8 8 9 9 9 9 9 10 10 9 9 9 9 8 9 9 8 8 7 6 6 5 5 4
Height
817 817 817 817 817 818 818 818 819 819 819 819 820 820 820 820 820 820 820 820 820 820 820 820 819 819 819 818 818 817 816 815 814 814 813 813 813 813 814 815 815 815 816 816 816 816 817 817 817 818 817 820 824 826 826 827 829 829 836 840 842 850 846 841 844 843 840 837 836 836 838 838 837 837 835 835 835 834 833 832 830 828 828 829 831 831 829 827
816 816 816 817 817 817 818 818 818 818 819 819 819 819 820 820 820 820 820 820 819 819 819 819 819 818 818 817 817 816 815 814 813 813 813 813 812 812 814 814 815 815 816 816 816 817 817 819 818 818 820 823 827 827 826 829 830 833 842 843 841 845 841 838 838 837 838 836 835 837 839 839 837 837 836 835 835 835 833 830 830 829 828 829 831 831 829 828
815 816 816 816 816 817 817 817 817 818 818 818 819 819 819 819 819 819 819 820 819 819 818 818 818 817 818 817 816 816 814 813 813 814 813 813 813 813 814 815 815 815 816 816 817 817 817 819 818 820 823 825 830 829 827 830 831 837 841 839 839 841 839 839 839 835 837 837 835 835 840 840 837 838 837 836 836 836 835 831 830 830 830 831 833 833 831 829
815 815 815 815 816 816 816 817 817 818 818 818 819 819 819 819 819 819 819 819 818 818 818 818 818 817 818 816 816 816 813 814 815 814 814 813 813 814 814 815 816 816 816 816 817 817 817 818 818 821 824 827 832 831 831 832 833 838 838 835 838 843 839 835 837 836 837 839 836 836 840 838 836 839 837 836 838 836 834 832 831 832 833 835 835 835 833 831
814 814 814 815 815 815 816 816 816 817 817 818 818 818 818 818 818 818 818 818 818 818 817 818 817 817 817 816 817 815 815 822 819 813 814 814 814 814 815 815 816 816 817 816 817 818 818 819 819 823 825 828 831 830 833 836 835 836 837 837 839 844 837 832 837 837 837 840 838 836 835 834 836 838 836 836 838 836 835 835 835 836 838 838 838 837 836 834
813 813 814 814 814 815 815 815 816 816 817 817 817 817 818 818 818 818 818 818 817 817 817 817 816 817 816 816 817 814 819 825 817 812 815 814 814 815 815 816 816 816 817 817 817 818 819 820 821 825 828 829 832 832 834 838 837 834 836 840 841 842 837 833 836 837 838 837 835 834 834 835 835 835 837 836 836 838 841 841 840 840 841 841 840 838 837 836
812 813 813 813 814 814 814 815 815 816 816 816 816 817 817 817 817 817 817 817 817 816 816 816 816 816 816 816 816 816 820 820 813 813 815 814 815 815 815 816 816 816 817 817 817 818 820 821 823 828 829 830 834 834 835 837 837 836 836 837 840 842 837 834 836 837 838 835 833 835 835 834 832 834 837 836 839 844 845 844 842 843 842 841 840 840 840 839
812 812 813 813 813 813 814 814 815 815 815 815 816 816 816 816 816 816 816 816 816 816 816 816 816 816 816 816 816 819 821 816 812 813 813 814 815 814 815 816 816 816 817 817 817 818 820 822 824 828 829 831 833 834 837 837 836 837 836 836 840 841 836 834 837 835 836 834 834 836 833 831 833 835 835 837 843 846 845 844 844 844 842 842 842 842 842 841
812 812 812 812 813 813 813 814 814 814 814 815 815 815 815 815 815 815 815 815 815 816 815 815 816 815 816 815 817 821 818 812 812 813 813 814 814 814 815 815 815 816 816 817 817 817 820 823 824 825 827 831 833 833 836 836 836 837 836 837 837 837 835 835 834 831 832 833 834 834 829 830 835 835 835 840 845 846 845 845 845 844 843 844 845 844 843 842
812 812 812 812 812 812 812 812 813 813 813 813 813 814 814 814 815 815 815 815 815 815 815 815 815 815 816 815 819 822 815 810 812 812 813 813 813 814 814 815 815 815 816 817 817 817 819 821 822 823 825 830 833 835 837 835 836 837 837 837 836 836 837 835 832 831 833 832 832 831 828 832 836 833 835 840 845 846 844 845 846 845 845 847 847 846 845 843
812 812 812 812 811 812 811 812 812 812 812 812 812 813 813 813 814 814 814 814 814 814 814 815 814 815 815 815 819 820 811 810 812 811 812 812 813 814 814 814 815 815 816 816 817 817 818 819 820 822 825 829 832 835 837 836 836 837 838 836 835 835 834 832 830 833 833 829 831 832 829 834 834 833 837 842 847 847 844 846 848 847 849 849 848 847 846 845
812 812 812 811 811 811 811 811 811 811 811 811 812 812 812 813 812 813 813 813 814 814 814 814 814 814 815 816 816 813 809 810 811 811 812 812 813 813 813 814 814 815 815 816 817 817 818 819 819 822 826 828 832 835 836 837 838 838 838 836 835 833 830 830 832 834 833 828 831 832 828 832 837 839 842 845 848 847 845 848 851 851 852 850 849 849 847 847
811 811 811 811 811 810 810 810 810 810 810 811 811 811 812 812 812 812 812 813 813 813 814 813 814 814 816 816 811 808 809 810 809 810 811 811 812 813 813 814 814 815 815 815 816 817 818 819 819 823 826 828 831 834 834 837 839 837 840 840 838 837 832 832 835 834 831 831 832 832 830 833 841 845 844 847 847 844 845 851 853 853 853 852 851 849 849 849
810 810 810 810 810 810 809 809 809 810 810 810 810 811 811 811 812 812 812 813 812 813 813 813 814 814 816 813 807 807 808 808 809 810 810 811 812 812 813 814 814 815 815 816 816 817 818 819 820 823 827 829 831 833 834 838 839 838 841 844 847 845 834 831 837 835 829 832 833 831 833 834 841 847 847 849 847 843 847 854 855 854 854 853 852 851 850 850
808 809 809 809 809 809 809 809 809 809 810 810 810 810 811 811 811 811 812 812 812 813 813 813 814 814 817 812 805 807 807 807 808 808 809 810 811 812 813 813 814 815 815 816 816 817 819 819 821 825 830 832 831 834 837 839 841 844 843 844 853 851 838 831 837 838 831 832 832 831 836 834 839 849 850 852 851 845 849 855 856 855 855 854 853 853 852 852
807 808 808 808 808 808 808 808 808 809 809 809 810 810 810 811 811 811 811 811 812 813 813 814 813 814 817 811 805 806 806 806 807 807 809 809 810 811 813 814 814 815 816 817 817 818 819 820 826 830 831 832 834 836 840 843 844 849 848 844 848 850 844 837 835 839 836 832 832 832 836 834 837 851 853 853 854 847 849 855 857 856 856 855 855 855 854 853
806 806 807 807 807 807 807 808 808 809 809 810 810 810 810 810 810 810 811 812 812 812 813 813 813 814 813 808 806 806 805 805 805 807 808 809 810 810 812 814 815 816 816 817 818 819 820 823 831 833 833 837 838 836 844 849 844 847 853 849 848 849 848 840 833 837 838 833 833 834 837 832 834 851 854 853 854 848 850 856 857 857 857 856 856 856 856 855
805 805 805 806 806 806 807 807 808 809 809 810 810 810 810 810 810 811 811 811 812 813 814 814 814 817 812 804 805 804 803 805 805 807 807 808 810 810 811 813 815 816 817 820 820 821 824 828 833 832 836 841 839 837 843 845 837 838 847 846 847 849 849 845 837 836 836 833 834 836 837 832 832 846 853 855 855 850 853 858 857 857 857 857 858 857 857 856
803 804 804 804 804 805 806 807 808 809 809 809 809 809 810 810 811 811 811 812 811 811 812 810 810 813 808 801 802 803 803 804 805 806 807 808 809 810 812 812 815 816 819 824 823 824 826 830 835 834 836 838 834 834 833 833 832 834 840 841 841 841 842 844 840 838 838 835 835 836 835 831 830 840 850 856 856 853 856 857 856 858 858 858 859 858 858 858
801 802 802 803 803 804 805 806 807 808 809 809 809 809 810 811 812 811 812 811 807 803 803 802 802 803 801 800 801 802 803 805 805 806 807 808 808 810 812 814 816 819 821 824 825 827 829 830 834 831 830 830 829 831 830 832 835 837 841 841 842 842 839 840 838 839 841 837 836 838 837 833 833 840 852 857 855 855 856 856 857 858 859 859 860 859 859 858
799 800 800 801 802 803 804 805 806 807 808 809 809 809 808 808 810 809 809 808 802 799 799 799 800 799 798 798 799 800 802 804 805 805 806 807 808 810 813 816 818 821 826 827 828 829 830 832 830 825 825 827 828 833 834 835 836 837 840 841 843 845 841 839 839 841 843 838 837 842 838 830 832 844 855 857 854 855 858 858 859 860 860 861 860 860 860 859
798 798 799 800 801 802 804 804 806 807 807 808 808 808 806 804 805 805 806 805 800 797 799 799 800 799 797 798 798 798 800 803 805 805 805 806 807 809 813 816 817 822 828 829 828 831 834 833 826 823 828 830 832 835 835 835 837 839 842 844 843 844 841 840 842 844 844 838 836 842 838 827 835 852 858 858 857 860 862 860 861 862 862 862 861 861 861 860
796 796 798 799 800 802 803 804 805 806 806 806 806 806 804 803 803 803 805 807 801 795 796 798 798 797 797 797 797 798 799 800 803 804 804 805 807 809 811 815 818 822 827 825 824 831 834 828 822 824 829 830 833 836 836 838 840 840 843 844 842 842 840 836 840 843 844 844 840 842 840 830 839 855 859 861 862 862 863 862 863 864 863 864 864 863 862 862
794 795 797 797 800 801 802 804 805 805 805 805 804 803 803 803 803 803 804 807 803 795 792 792 792 792 792 793 792 795 798 797 798 799 800 802 806 810 810 812 819 822 823 822 822 826 825 823 826 829 829 829 832 837 838 838 840 841 842 841 838 839 838 835 840 842 842 847 845 842 838 829 832 843 851 860 863 862 863 863 863 865 865 865 864 864 864 864
792 794 795 796 799 800 802 804 803 803 803 804 802 800 802 802 803 804 804 809 805 795 791 789 789 788 785 788 790 791 795 796 795 795 797 799 801 806 809 811 815 819 821 823 827 826 822 824 827 827 829 832 832 835 835 835 838 839 836 834 832 833 835 838 841 841 840 842 845 845 836 826 826 832 846 859 861 861 863 863 863 864 864 864 864 865 865 865
790 792 793 795 798 799 803 802 800 802 802 802 799 798 802 801 803 803 804 816 808 792 790 787 785 783 781 787 789 791 797 796 794 794 795 798 798 800 807 812 814 816 820 823 827 825 822 825 824 823 827 831 832 833 833 834 839 838 832 830 834 835 836 839 839 840 841 840 847 851 839 832 825 822 844 861 858 860 863 861 862 862 863 863 864 865 865 865
788 790 791 794 796 798 800 799 798 800 800 798 795 798 801 799 804 801 806 823 807 780 782 785 783 781 780 786 786 788 796 794 793 796 795 796 797 798 804 811 814 817 819 822 825 822 820 824 826 824 826 830 832 830 830 833 833 832 831 832 834 835 835 838 838 839 842 842 847 848 841 841 832 827 849 861 853 857 862 860 861 861 862 863 863 865 865 865
785 788 789 792 794 795 796 796 797 797 796 794 793 798 798 799 804 800 812 827 797 768 776 783 782 780 781 787 787 788 793 791 792 797 796 796 798 799 803 808 809 812 816 818 820 821 820 820 823 824 827 830 828 823 827 830 825 828 838 839 835 835 836 839 839 840 847 847 842 841 841 842 835 832 852 858 848 850 855 855 857 859 861 862 862 864 864 865
783 785 787 789 791 793 794 794 795 794 793 793 794 796 797 800 801 802 822 821 780 764 776 778 780 784 785 789 790 791 793 793 794 796 797 798 798 799 804 807 808 812 817 817 815 818 821 822 821 822 824 825 824 827 831 825 821 833 843 842 840 844 844 843 842 840 846 847 837 835 837 837 832 827 840 850 840 838 846 850 853 856 859 860 861 862 863 865
781 782 784 787 789 791 793 792 792 792 793 794 794 795 797 800 802 813 828 803 764 769 781 778 782 786 787 790 793 794 793 795 797 797 799 799 799 801 805 808 809 812 817 818 816 817 822 826 825 821 821 823 827 837 841 833 831 838 837 834 837 842 842 844 846 842 844 842 835 840 841 837 834 825 827 835 828 826 836 844 851 855 856 858 858 860 862 863
778 780 782 783 783 786 789 789 789 790 792 792 794 796 798 801 806 814 809 775 759 775 781 782 788 787 786 789 791 794 794 797 798 797 799 801 802 803 806 808 810 815 820 819 818 820 822 823 821 819 823 826 827 834 841 841 841 836 827 828 833 837 840 843 845 844 842 835 836 852 853 843 837 823 817 825 828 831 832 833 843 850 851 854 856 858 861 862
775 777 778 778 779 781 784 784 786 790 792 791 793 795 798 806 806 798 782 762 762 773 774 780 787 787 787 787 788 794 795 797 798 797 800 803 804 803 803 803 804 814 821 819 819 821 819 817 818 819 823 823 819 826 837 840 839 833 826 828 831 838 843 840 842 849 845 836 843 856 850 843 837 819 812 817 824 834 836 833 838 843 846 850 853 857 859 861
770 773 775 776 776 778 779 781 785 789 790 791 793 792 797 803 792 777 772 765 763 767 770 776 783 786 787 786 789 794 793 795 797 799 802 803 805 805 803 803 802 802 808 814 819 819 816 817 819 817 818 817 812 817 827 830 832 830 825 823 827 838 845 842 849 860 850 838 849 859 849 841 831 816 816 821 827 839 843 840 840 839 842 846 850 856 857 859
766 769 771 772 774 775 777 781 784 785 787 790 791 793 797 792 775 765 769 768 766 770 773 776 783 788 786 785 788 789 790 795 797 798 802 804 806 806 803 805 805 798 801 813 817 814 810 810 810 810 811 811 808 810 814 818 827 830 827 823 824 828 831 833 839 841 835 834 849 859 845 825 815 818 833 840 843 849 846 844 845 841 843 846 850 856 857 858
763 765 767 769 770 772 775 778 781 784 786 788 789 792 790 781 773 769 768 767 769 773 776 778 782 787 788 787 789 787 784 791 798 799 801 801 802 803 800 800 802 799 798 804 809 813 810 802 804 812 814 810 808 812 814 814 821 833 834 826 823 819 817 833 847 846 842 841 844 848 834 817 817 832 848 850 846 848 845 844 845 842 844 848 851 855 857 857
760 762 764 765 764 767 771 773 777 780 784 786 788 788 780 771 771 769 764 763 766 770 777 781 780 784 789 788 790 790 783 786 796 798 799 801 798 798 797 792 795 796 791 791 798 808 808 803 808 815 814 814 814 815 816 812 814 828 832 821 822 823 815 828 853 863 860 843 832 834 824 816 822 828 840 848 843 843 846 844 843 843 845 849 851 853 855 855
756 758 760 759 759 763 766 769 773 776 780 782 782 779 773 767 765 764 764 764 764 766 771 773 773 775 782 785 787 789 785 786 794 794 795 798 792 789 792 788 787 790 786 785 790 795 796 800 811 813 809 816 823 818 816 817 815 821 822 815 821 826 819 822 835 848 856 844 830 831 824 816 816 815 828 842 836 836 844 845 845 846 846 847 849 851 852 852
751 755 756 754 755 758 762 766 769 772 776 776 774 772 768 766 763 762 765 766 764 765 765 764 763 765 773 779 780 784 784 783 790 791 790 792 783 777 782 781 782 785 783 783 786 788 790 794 810 819 814 816 822 815 812 819 820 815 814 815 817 817 819 828 831 832 840 840 830 827 829 824 814 808 815 823 820 825 839 846 845 843 843 844 845 847 849 849
748 753 753 750 752 756 759 763 765 768 771 770 770 769 764 762 762 762 764 765 763 765 763 760 761 763 769 771 772 778 780 779 787 787 783 784 779 773 774 774 778 785 784 783 784 787 790 791 803 818 818 815 815 811 809 816 821 818 817 818 818 815 817 825 830 827 828 834 831 822 819 813 808 805 801 799 806 818 832 841 840 837 837 838 838 841 843 844
746 749 749 747 750 752 756 760 763 766 765 761 761 763 760 760 761 761 763 764 762 764 763 760 760 763 766 769 769 771 773 776 783 781 775 775 774 772 773 770 775 786 787 784 783 786 790 791 797 813 820 815 809 808 807 808 812 815 816 818 819 822 824 824 827 829 826 827 830 827 816 801 801 808 799 792 805 818 824 828 830 833 833 833 835 836 837 840
743 745 745 746 749 751 755 760 761 762 760 757 756 757 758 759 759 761 764 764 763 764 764 762 761 762 764 767 767 767 770 774 778 776 772 772 769 767 771 771 773 780 785 785 783 784 789 791 797 809 815 809 804 811 815 810 808 807 807 809 811 815 821 822 826 835 836 830 827 829 818 797 798 814 810 804 813 820 821 823 825 829 830 830 832 833 836 840
740 741 743 747 748 750 754 758 758 756 756 755 754 755 757 757 757 760 763 763 763 764 765 764 763 763 764 764 765 767 768 771 774 772 769 768 765 763 772 777 774 773 778 782 782 784 788 792 799 806 809 808 812 823 828 822 814 809 807 808 808 808 810 812 818 830 839 839 837 840 827 802 804 821 820 815 819 820 823 824 824 826 827 828 831 833 837 839
738 742 746 747 748 749 752 756 758 755 753 754 754 755 757 758 757 759 761 762 763 763 764 763 762 762 762 764 766 765 763 765 769 769 767 766 766 771 780 782 776 772 773 778 782 785 787 790 798 804 808 812 816 821 825 824 816 809 809 812 811 807 806 807 813 820 825 827 832 841 829 803 806 824 823 822 824 822 823 823 822 825 826 827 831 832 833 836
739 745 748 748 748 749 749 751 754 754 754 756 756 757 759 759 758 759 759 759 760 761 761 761 761 760 761 764 766 763 762 764 766 768 768 766 770 781 786 782 778 775 772 774 776 779 785 789 795 802 807 811 814 814 814 816 813 807 810 816 813 809 812 815 820 823 821 816 819 826 815 797 806 824 823 823 824 820 823 825 823 824 825 825 828 828 829 833
739 743 748 748 748 749 747 745 746 750 755 757 757 757 759 760 759 759 758 757 758 758 758 759 761 760 761 763 763 762 764 765 767 770 771 771 776 785 786 783 782 777 776 777 774 773 781 787 789 792 796 799 802 804 802 802 807 809 812 815 814 811 811 810 815 822 820 815 816 815 803 796 808 819 815 817 820 815 816 823 824 823 823 823 824 823 826 829
734 738 746 750 749 748 748 746 744 745 751 755 758 759 758 759 760 760 759 757 758 758 758 760 761 760 760 762 763 765 768 769 771 773 773 775 780 785 788 787 785 783 783 782 778 776 781 785 784 781 781 783 783 789 795 796 797 801 803 805 808 811 810 807 811 816 814 814 812 802 795 797 803 808 807 809 814 810 810 818 823 822 822 822 821 822 824 826
730 733 739 745 747 747 748 748 746 743 746 750 754 758 758 759 760 760 759 758 757 758 760 762 760 758 759 763 767 771 774 775 776 777 778 780 783 788 791 789 787 787 786 785 783 780 779 782 783 779 778 781 780 783 792 793 789 791 794 795 801 809 812 811 809 804 804 812 807 794 796 799 795 799 804 802 804 807 808 813 817 818 819 820 821 822 823 825
731 730 733 735 738 741 742 744 745 744 745 747 750 756 757 758 760 759 759 761 759 757 759 763 763 760 761 764 766 771 776 777 777 779 781 783 786 788 789 788 789 789 787 786 784 780 778 780 782 781 781 784 787 790 794 792 789 791 791 789 794 806 811 811 807 800 799 802 795 791 799 798 791 797 802 797 797 801 802 807 812 815 817 819 820 820 820 821
732 732 734 735 734 735 737 739 742 745 747 748 752 756 756 756 758 759 760 763 763 760 759 762 765 764 764 766 766 768 771 769 770 776 779 780 784 786 786 786 789 791 788 785 785 783 780 780 784 786 782 783 793 799 797 795 795 795 794 791 794 803 807 806 803 800 801 799 792 796 805 800 794 798 798 796 799 802 804 809 813 814 814 815 816 817 817 819
731 731 733 736 738 739 739 740 743 746 749 750 751 753 754 755 755 758 761 761 761 763 762 761 763 765 767 769 768 766 765 763 766 772 775 778 781 783 784 781 783 791 791 786 786 786 783 786 792 790 784 789 802 806 803 802 800 797 794 792 795 802 806 806 803 802 806 805 800 804 810 802 795 797 797 798 802 805 805 807 809 810 810 811 813 815 816 816
730 731 731 733 737 740 741 742 743 746 749 750 749 749 752 754 753 756 760 759 757 759 762 763 765 767 769 771 769 766 765 765 768 770 771 773 775 776 778 776 777 785 789 788 787 784 784 792 796 792 789 793 803 808 809 809 809 806 798 789 791 799 800 799 802 801 801 801 802 808 808 797 792 797 799 799 802 804 803 803 804 807 808 810 811 811 813 814
731 732 731 732 736 739 741 742 744 744 743 743 744 745 746 747 750 752 756 758 757 757 759 763 766 768 769 770 767 765 765 765 766 769 771 771 771 772 773 774 773 776 782 787 788 787 788 789 791 793 791 795 806 810 807 810 813 804 786 773 778 788 791 792 797 799 797 796 800 802 795 788 791 798 799 798 801 803 801 800 802 803 806 809 809 809 810 812
Wind_Speed
4 3 3 2 3 2 2 1 1 1 1 1 1 1 1 1 2 2 2 3 3 4 5 7 8 9 10 12 13 14 15 14 13 11 7 7 6 6 4 3 2 0 1 1 2 3 2 4 4 6 5 4 4 3 3 3 2 4 3 3 1 2 3 4 6 6 3 2 4 3 1 2 3 3 2 1 2 4 3 4 4 4 3 1 7 15 16 14
4 3 2 2 3 2 2 1 2 1 1 1 1 1 1 1 1 2 2 4 4 5 6 8 9 10 11 12 12 14 15 15 12 7 5 5 2 4 6 4 1 1 2 1 2 2 3 2 3 6 6 3 3 3 2 2 3 3 3 2 2 5 4 4 6 5 3 1 4 4 0 2 2 1 2 2 3 6 6 6 4 4 4 5 14 18 17 17
3 2 2 2 3 2 2 1 1 1 1 1 1 1 1 1 2 2 3 4 5 6 7 8 9 10 10 10 11 12 14 13 7 4 5 4 4 6 6 4 2 3 2 2 3 2 4 4 4 6 4 3 2 2 3 3 2 1 3 2 4 5 3 4 5 5 4 1 3 4 0 2 3 2 1 1 4 4 3 6 3 2 4 6 10 16 20 20
3 3 2 2 2 2 2 2 1 1 1 1 2 2 2 2 3 3 4 4 5 6 7 8 8 9 9 9 9 10 11 8 3 2 4 4 5 5 4 3 3 4 3 4 5 5 6 7 7 5 3 2 3 3 2 2 1 2 3 3 4 3 1 4 6 6 4 2 2 3 2 2 2 2 1 1 3 4 3 5 3 3 4 4 6 12 18 20
4 4 3 3 3 2 2 2 1 1 1 0 1 2 2 3 3 3 4 5 6 6 7 7 7 7 8 8 7 8 7 5 1 2 3 3 4 4 3 3 3 3 3 5 7 7 7 6 6 5 4 2 3 3 1 2 2 1 1 3 4 3 2 4 5 4 3 3 2 3 4 3 1 2 3 3 2 3 2 3 1 2 3 4 5 8 13 16
5 4 4 3 3 3 3 3 2 2 1 1 1 2 2 3 3 3 4 5 6 6 6 7 7 6 6 6 5 4 4 1 3 2 1 1 3 3 3 3 3 2 2 5 7 7 5 5 6 4 3 2 1 2 0 3 2 1 2 1 3 4 3 3 2 3 3 2 2 3 3 2 2 3 2 4 2 1 4 4 5 6 6 6 8 9 10 12
5 4 4 3 3 3 2 3 3 3 2 1 1 1 2 3 3 3 4 5 5 5 6 6 6 6 5 4 3 4 4 3 4 3 3 2 3 3 3 2 3 2 3 5 6 5 4 5 4 3 4 2 1 2 1 2 3 3 2 2 1 3 4 3 1 2 3 2 5 1 3 3 2 4 0 2 2 4 5 6 8 9 10 10 11 11 10 11
3 3 4 3 3 3 2 3 3 3 3 2 2 2 2 3 3 3 4 4 4 5 5 5 5 5 4 3 2 4 2 4 3 2 4 3 4 4 4 2 2 3 4 5 5 6 4 5 4 4 3 0 3 3 1 2 4 3 3 2 1 3 5 5 3 4 4 5 3 1 3 5 3 2 1 4 4 4 3 6 7 7 11 12 11 10 9 10
4 5 4 4 4 3 3 4 4 4 4 3 3 2 2 2 2 3 3 4 4 4 4 4 4 4 2 2 5 3 3 4 2 2 2 2 4 4 4 3 2 3 5 5 5 7 4 3 4 4 3 2 4 3 1 1 1 3 4 2 1 3 5 4 5 5 5 4 2 2 5 4 1 1 2 2 3 2 3 7 6 6 10 10 8 9 10 11
5 6 6 6 5 4 4 5 5 5 4 4 4 3 2 2 2 3 3 3 3 3 4 3 3 2 0 3 5 1 4 2 1 1 0 2 3 3 4 4 3 3 5 5 6 8 4 5 5 5 5 3 3 2 1 3 1 3 4 3 4 4 5 3 5 4 3 4 4 5 6 2 2 1 2 1 3 2 5 8 7 8 10 8 7 8 10 12
6 6 7 8 8 5 5 5 6 6 5 4 4 3 2 2 2 2 3 3 4 3 3 2 2 1 1 3 4 4 4 2 2 2 0 1 1 2 3 4 4 4 5 5 7 7 3 7 10 6 2 2 3 1 1 3 2 2 1 3 5 6 5 3 4 4 2 3 4 6 4 2 3 2 1 2 4 2 6 8 8 8 7 6 7 7 10 11
6 8 9 9 8 6 6 6 6 6 5 4 4 3 2 2 2 2 3 3 4 3 3 2 2 1 2 2 4 7 5 4 4 3 1 1 1 3 3 3 3 3 5 4 6 7 4 8 12 6 1 4 3 0 1 2 2 1 2 3 7 7 6 5 4 3 1 1 2 4 2 4 4 2 1 3 3 4 8 7 7 7 5 5 6 6 8 11
8 9 10 9 8 7 7 6 6 5 5 4 4 2 2 2 2 3 3 3 4 3 3 2 2 2 2 1 5 9 10 8 6 5 3 3 2 3 3 4 4 3 4 3 5 7 5 8 10 6 3 5 2 1 3 3 2 1 3 3 5 7 6 4 2 3 2 0 1 1 2 4 2 2 5 4 1 5 8 6 5 5 4 5 4 5 7 11
8 10 11 10 10 11 9 6 5 4 3 3 3 2 2 3 2 3 3 3 3 2 2 1 1 3 3 3 4 5 9 9 9 7 5 5 5 6 6 5 4 4 4 4 6 6 6 9 9 6 3 3 2 2 4 5 3 1 2 2 3 2 4 6 2 3 1 1 3 2 2 3 2 3 7 6 0 6 6 4 4 4 4 4 4 5 5 9
9 10 12 12 12 13 8 5 4 4 2 3 2 2 2 3 3 3 3 2 1 0 1 2 3 4 2 5 5 3 6 6 7 7 6 8 9 7 6 6 7 7 7 8 9 9 9 9 8 5 1 2 3 4 3 4 3 3 1 3 2 1 5 7 3 0 1 1 5 4 2 4 2 2 6 5 2 7 7 3 4 4 5 5 5 6 5 7
10 11 12 12 14 13 8 5 5 4 2 3 2 2 2 3 3 3 2 2 2 2 2 2 3 4 1 3 2 2 4 4 6 7 8 10 9 6 8 9 9 9 9 10 11 10 8 7 4 2 2 2 4 5 3 3 4 3 0 3 2 2 3 6 3 1 1 1 4 3 1 3 1 1 5 4 3 6 7 4 5 4 5 5 5 5 5 6
11 11 12 13 14 12 8 6 5 4 1 2 2 2 2 2 2 2 3 4 4 3 2 3 4 3 1 2 1 2 3 4 5 8 10 10 7 8 10 8 7 9 9 8 7 5 5 5 1 0 3 3 3 4 3 2 4 3 1 2 3 3 2 4 2 2 4 2 1 2 1 5 3 1 4 5 4 5 7 4 4 4 4 5 4 5 5 6
13 12 13 14 13 10 7 6 6 4 1 2 2 1 1 1 1 3 5 7 6 4 2 2 4 2 3 3 2 2 3 4 6 7 9 8 7 9 9 6 6 8 7 5 3 3 3 3 2 1 3 2 2 5 3 5 4 3 2 2 3 3 3 4 4 2 4 3 1 1 2 8 4 3 4 5 4 6 6 3 3 4 4 4 4 4 4 5
14 13 13 13 12 10 8 8 8 5 2 2 0 3 3 3 2 2 5 6 4 2 1 3 4 2 3 2 2 3 5 6 6 6 8 9 9 9 8 7 7 7 5 2 1 1 1 3 4 2 2 2 5 7 8 7 5 6 5 4 3 3 4 4 5 4 1 2 4 4 5 9 5 2 3 3 4 5 4 3 3 3 3 3 3 3 4 5
15 14 13 12 11 10 9 9 9 6 3 2 2 5 3 2 2 2 1 2 5 4 2 5 7 2 1 1 4 8 7 6 4 5 9 10 11 11 6 4 6 5 3 4 2 1 3 3 3 5 6 8 10 9 6 4 5 5 4 3 4 4 5 3 3 5 1 1 5 4 4 7 5 2 2 1 2 4 4 3 3 3 3 3 3 3 3 4
15 15 13 11 10 9 8 9 11 8 4 3 4 4 2 3 2 2 2 4 10 11 6 5 7 4 3 3 9 11 6 2 1 4 11 11 11 10 1 2 5 2 1 3 3 2 3 5 7 8 8 7 7 6 5 4 5 4 4 3 3 4 5 4 2 4 1 3 4 2 2 8 4 0 3 2 2 3 2 2 3 2 2 2 2 3 3 3
16 15 13 10 9 8 8 10 12 9 5 4 5 3 3 3 2 1 2 2 9 12 11 7 4 6 4 4 10 10 4 2 1 3 10 10 6 6 2 3 5 4 1 3 3 2 1 4 9 8 5 4 3 5 7 4 4 2 3 2 4 4 3 4 2 4 3 2 3 3 3 7 2 2 3 3 3 2 2 2 2 2 2 2 2 3 3 3
16 15 13 9 9 9 9 11 11 7 6 7 6 5 3 2 2 2 3 1 5 5 7 6 5 7 5 3 8 10 3 4 4 5 12 11 3 4 5 5 5 5 3 5 5 4 3 5 9 5 7 6 3 4 7 4 2 3 3 3 4 2 2 3 2 3 3 1 1 2 4 6 0 3 3 4 3 2 3 3 3 2 2 2 2 2 3 4
17 16 14 11 10 9 9 10 8 6 10 11 12 11 5 1 3 3 2 0 4 4 4 7 6 6 7 5 10 13 5 4 4 5 13 12 4 3 5 5 5 5 5 8 8 6 5 4 2 5 6 8 4 4 6 5 2 4 5 6 5 4 5 5 2 3 2 3 1 2 4 5 0 1 1 2 1 2 2 2 3 2 2 2 2 3 3 3
18 17 15 14 12 10 10 8 8 10 10 10 14 14 8 4 3 3 2 2 4 5 3 5 4 5 7 7 11 12 3 2 3 5 12 13 7 4 3 2 4 5 7 6 6 5 6 4 4 6 4 5 6 4 5 7 3 3 5 10 10 6 6 3 1 2 3 3 2 3 2 4 3 1 1 1 1 1 2 2 2 2 2 2 2 3 3 2
19 17 14 14 12 13 11 5 9 12 9 9 12 10 11 8 5 4 4 3 5 3 1 3 4 7 9 6 8 8 3 3 3 3 9 11 6 5 3 2 2 4 6 5 3 3 3 1 3 5 5 5 6 4 6 7 5 2 4 8 9 6 6 4 3 3 1 2 1 2 1 4 5 3 1 1 1 2 1 1 1 0 2 2 1 2 1 2
20 18 15 14 13 17 12 4 9 12 6 9 12 10 12 11 8 5 3 3 6 3 4 2 0 6 8 4 5 7 2 3 2 3 4 6 4 3 3 4 2 1 3 4 1 2 3 3 3 5 6 6 5 4 6 8 7 3 3 5 7 7 7 6 6 4 2 2 3 2 2 2 4 3 2 0 1 1 1 1 2 2 1 1 1 1 1 1
22 20 18 17 19 23 14 3 11 14 5 5 11 13 12 12 9 3 3 2 5 3 4 1 1 3 3 1 3 5 1 0 5 1 1 4 2 3 2 6 6 4 3 5 4 3 3 5 5 7 5 5 6 4 8 10 5 4 3 6 6 6 6 5 6 3 0 1 3 4 1 1 4 3 3 3 1 3 2 5 5 4 3 2 2 1 0 0
23 22 21 19 19 24 18 7 10 14 8 5 12 16 15 13 8 4 3 5 2 3 2 1 2 2 2 3 3 3 1 3 2 2 2 3 1 3 3 5 6 7 2 2 5 2 1 4 6 8 5 6 4 2 6 9 3 3 6 7 5 5 5 4 5 3 2 1 4 5 3 2 4 4 2 2 2 5 5 6 6 5 4 3 3 3 2 2
25 24 23 19 18 23 22 16 15 13 8 8 14 18 17 9 4 4 3 5 1 2 1 1 1 1 5 6 1 2 2 2 1 1 3 1 3 6 2 2 6 6 2 4 1 3 1 1 2 4 4 5 4 3 1 3 3 6 7 6 6 5 4 3 2 3 2 2 5 5 2 2 2 4 3 3 4 5 6 5 5 5 5 5 5 4 4 3
27 27 26 24 23 26 20 15 21 17 8 12 18 18 12 3 2 4 6 3 2 1 2 2 1 3 8 8 3 1 2 2 0 3 2 1 2 4 2 2 4 4 2 2 2 3 3 1 2 2 3 5 6 5 3 3 4 5 4 4 4 2 3 3 4 3 1 4 5 2 1 2 3 4 4 5 5 5 8 8 9 10 8 8 6 5 5 4
30 30 29 29 28 30 23 15 22 22 11 16 20 12 5 2 2 6 5 1 1 3 4 4 2 5 7 3 3 4 4 2 1 3 4 3 3 4 3 4 5 3 1 4 2 2 2 3 2 1 2 4 6 5 4 4 3 3 4 5 4 1 3 2 3 1 2 5 3 1 1 2 5 6 5 6 6 6 5 5 9 13 12 9 7 5 5 4
33 32 32 33 30 32 30 20 19 23 19 18 16 5 3 5 6 7 6 2 1 2 3 4 2 5 7 4 2 4 3 2 3 2 2 3 3 4 2 2 5 4 2 5 4 1 2 4 1 3 1 3 7 6 2 1 2 4 5 4 4 3 3 1 3 2 3 3 2 1 1 2 3 5 5 5 4 4 3 2 4 10 12 10 8 6 5 4
34 34 34 35 33 32 32 24 16 21 24 18 9 3 4 5 4 3 6 4 1 2 3 4 5 5 6 3 3 5 3 2 5 4 2 3 4 5 4 4 3 4 4 4 3 4 3 3 4 6 2 4 8 6 5 6 4 3 3 5 5 5 4 3 3 2 3 2 2 2 1 3 3 2 3 2 2 3 2 3 2 5 7 7 6 5 5 5
34 36 35 34 35 34 34 30 21 21 22 12 3 4 6 6 2 1 4 4 0 2 4 3 6 5 3 2 2 5 4 2 4 5 3 5 5 5 5 6 6 4 4 4 2 2 3 4 4 1 1 5 7 3 4 7 4 1 2 5 3 4 4 2 3 5 3 2 3 2 3 4 3 1 3 2 2 3 2 2 3 5 6 6 5 5 5 5
33 35 34 31 33 36 37 36 29 26 20 7 3 6 5 5 3 1 3 3 3 5 6 3 3 4 3 2 2 6 3 1 5 4 2 4 4 5 5 5 7 7 5 5 3 2 2 3 3 2 2 2 4 3 2 2 3 2 2 3 4 3 6 4 2 2 3 1 3 2 2 4 1 1 3 3 2 3 2 2 5 6 6 7 6 6 6 7
30 26 23 25 31 36 39 38 34 29 16 5 7 7 4 4 4 3 2 1 2 6 8 4 3 5 5 3 4 6 3 2 4 4 3 3 3 5 6 4 6 11 9 4 2 3 4 1 2 2 1 1 1 3 3 3 2 5 3 5 3 2 4 3 1 2 3 2 4 1 3 3 0 2 2 2 2 4 3 3 4 5 7 8 8 7 8 8
24 14 11 19 29 33 36 39 36 24 8 3 9 9 5 4 3 3 2 1 2 4 4 4 5 5 6 5 5 6 5 3 5 5 4 4 4 5 8 4 5 11 11 5 2 1 4 3 2 1 2 0 2 3 4 4 3 4 4 3 3 3 2 2 2 1 1 3 4 2 3 3 4 4 2 4 8 8 5 4 6 8 10 10 10 9 10 9
17 8 3 12 23 27 34 38 30 14 4 6 10 9 5 5 3 3 4 3 1 2 4 3 2 2 4 6 4 6 7 6 7 6 4 4 4 4 8 4 3 7 8 6 4 1 3 3 2 1 0 0 2 2 3 1 3 3 1 2 2 2 3 2 2 2 2 2 4 4 3 3 5 5 7 10 11 10 9 7 9 12 13 13 11 11 11 10
10 3 1 7 16 23 30 29 16 6 5 6 7 6 3 3 3 3 5 4 1 1 3 3 2 3 3 3 2 4 6 6 8 6 4 5 4 4 6 4 4 4 3 5 5 1 3 2 2 0 2 1 1 2 5 6 3 2 2 1 0 1 2 1 1 2 3 3 2 3 5 5 4 3 7 9 8 10 12 12 12 12 12 12 11 11 11 10
5 2 1 6 14 20 22 16 6 4 5 4 4 5 3 2 3 3 2 2 2 1 1 2 3 3 3 3 2 4 5 4 6 5 3 5 5 3 4 3 7 7 4 5 5 2 2 2 3 3 1 3 3 3 3 4 4 5 4 5 5 4 4 2 2 0 2 2 4 3 5 7 3 2 4 4 4 7 10 10 10 10 11 12 12 11 9 7
3 3 2 8 18 22 16 6 2 3 4 4 4 3 2 2 3 4 3 2 2 1 1 1 2 2 3 3 2 4 5 4 6 5 3 5 5 3 1 1 5 8 6 4 3 3 2 3 4 2 3 4 4 3 1 2 2 4 2 3 4 4 5 5 4 3 2 1 1 3 3 6 2 2 3 3 4 5 7 8 8 8 10 11 9 7 6 6
3 2 3 9 19 19 10 3 3 3 3 2 1 1 1 2 3 4 4 4 3 2 2 2 2 3 4 2 2 5 6 4 5 5 2 3 3 1 2 2 2 5 5 3 2 1 2 3 3 1 2 2 4 3 1 1 3 3 1 1 4 3 3 3 4 3 3 3 2 2 4 5 1 0 2 3 3 3 5 7 8 7 7 7 8 8 8 8
2 3 2 7 14 12 5 3 5 5 4 2 2 2 0 0 3 4 6 7 4 3 4 3 2 3 4 3 2 4 4 2 3 3 2 3 2 1 3 3 1 2 2 3 4 4 2 2 4 3 0 2 3 1 2 3 0 2 2 2 2 3 5 3 2 3 1 5 7 3 8 7 1 1 2 2 2 3 5 6 6 6 6 7 9 10 10 9
3 2 2 3 6 5 2 2 4 5 4 3 3 4 2 1 2 2 4 5 3 3 4 2 2 2 3 3 2 1 1 1 2 1 1 1 1 3 3 4 3 1 1 2 1 5 4 3 4 6 5 5 4 4 4 2 1 2 2 3 4 5 7 4 3 3 4 4 8 7 10 5 1 2 3 3 2 4 6 5 5 6 6 8 9 10 10 9
3 1 2 1 1 2 1 0 3 4 5 5 3 3 4 4 1 1 2 3 2 2 2 0 2 3 2 3 4 3 2 2 2 1 2 1 1 2 3 4 4 1 1 3 3 3 4 2 4 6 7 7 6 6 5 4 5 3 4 6 6 7 8 6 4 4 5 4 5 11 9 4 4 4 4 5 4 5 5 4 5 6 7 7 8 8 8 8
2 2 3 3 1 2 1 1 2 3 4 7 4 3 6 6 1 1 1 1 2 3 2 2 1 3 4 5 5 4 3 2 3 2 2 1 0 2 3 2 3 2 2 2 2 2 4 2 5 6 7 6 5 6 6 5 5 7 7 8 8 7 8 8 7 7 6 5 9 9 5 5 10 6 6 7 6 6 6 5 6 7 7 7 6 6 7 7
1 1 2 2 1 3 3 3 5 4 4 7 5 4 7 7 5 3 1 1 0 2 2 1 2 3 5 6 4 4 4 3 2 3 3 2 2 1 2 2 2 4 3 1 2 2 4 3 4 5 6 5 4 4 6 5 4 6 7 9 10 9 10 11 12 11 8 7 13 5 8 9 10 4 8 9 7 7 7 6 6 5 5 6 6 7 9 10
1 1 1 2 1 2 2 5 8 6 5 6 4 4 8 10 9 5 2 2 0 2 2 3 4 6 6 5 5 4 5 5 4 4 4 3 3 3 1 1 1 3 3 2 1 1 3 2 2 4 5 4 3 3 5 5 3 3 6 10 10 9 11 12 13 13 10 10 13 4 3 10 7 6 8 8 5 6 4 3 4 5 5 7 8 9 9 9
1 1 1 2 2 1 2 5 8 6 4 4 4 4 5 8 9 4 2 3 3 2 4 4 5 8 8 6 6 6 6 5 4 4 5 5 3 2 2 2 2 1 1 1 0 1 1 1 2 3 3 3 1 3 3 3 3 3 8 13 10 8 10 11 12 9 6 9 12 5 5 11 6 6 7 5 3 4 2 3 5 6 7 7 7 8 8 8
3 2 2 3 2 1 2 3 5 5 4 4 5 4 4 7 9 6 2 4 4 4 5 5 6 6 6 7 8 8 5 5 5 4 6 6 5 4 3 3 5 4 2 2 1 1 2 1 2 3 2 3 1 5 4 4 3 3 12 18 15 10 9 9 7 7 9 10 10 6 8 11 5 5 5 5 4 4 5 6 6 6 7 7 7 8 8 8
3 3 2 3 2 2 3 3 4 4 3 4 6 6 5 7 9 8 4 3 3 5 5 7 7 5 4 7 11 9 5 4 3 3 4 3 3 3 2 4 6 6 5 4 1 1 4 4 2 3 3 2 1 6 5 5 2 6 13 15 14 12 10 7 5 8 11 10 7 8 10 8 3 5 5 5 5 6 7 7 7 6 6 6 7 8 7 7
Wind_Direction
195 189 198 176 157 154 151 142 145 143 133 142 109 93 90 93 54 37 1 346 339 334 339 337 340 344 346 346 344 341 339 335 330 325 318 310 288 247 232 199 176 357 109 165 181 159 79 50 40 43 60 48 13 348 11 16 58 55 76 86 30 191 192 181 182 193 173 272 264 310 44 133 301 320 313 338 33 332 329 314 296 321 289 185 18 9 13 20
194 194 195 165 159 158 153 153 144 136 118 101 75 84 66 63 50 32 10 360 345 339 342 337 342 344 345 346 342 343 340 333 329 335 348 339 317 177 174 171 175 154 138 162 171 135 98 56 42 53 51 41 350 346 21 7 54 79 114 79 248 202 209 194 176 192 195 262 264 290 348 156 242 274 351 317 304 341 345 307 343 352 305 1 10 15 28 37
191 196 197 166 162 166 163 155 136 118 87 55 28 33 34 29 24 13 6 2 347 340 339 336 341 342 344 343 344 348 340 336 338 359 17 26 97 130 151 163 158 146 141 144 144 106 116 135 97 71 48 55 359 351 37 13 22 129 119 88 244 212 236 227 193 207 211 255 294 296 74 155 238 227 347 285 285 330 320 288 336 346 311 343 358 16 25 35
203 209 214 195 182 182 171 156 131 109 70 38 14 5 9 17 18 2 355 354 340 333 333 335 337 339 341 342 349 348 345 358 357 340 27 57 111 125 138 146 145 145 142 141 133 105 111 113 87 71 65 57 339 6 55 346 358 140 127 169 221 189 254 229 202 220 220 210 257 290 330 296 239 175 177 151 316 315 253 258 264 298 335 347 349 15 21 31
213 222 220 215 206 198 190 171 161 153 145 48 8 359 1 2 9 354 345 344 332 331 333 335 336 339 342 344 353 352 6 30 299 275 47 79 123 128 128 125 131 138 136 142 134 113 108 98 69 56 59 56 344 24 44 309 83 135 203 184 186 153 253 243 196 216 197 159 247 299 316 301 149 138 165 153 280 287 316 324 346 31 50 41 11 16 21 30
215 223 221 224 220 215 210 188 187 190 193 212 322 350 351 349 360 344 337 342 333 334 336 336 342 345 344 348 355 16 61 58 257 214 80 118 151 146 129 118 124 136 141 142 136 118 96 63 59 61 51 55 35 69 210 307 46 164 272 239 203 179 228 251 167 201 170 106 282 269 301 329 30 331 168 152 236 323 21 27 67 64 69 64 42 32 25 27
218 223 225 231 232 230 226 198 197 199 205 222 275 320 331 344 353 333 333 340 335 338 342 344 347 346 349 355 355 40 83 250 263 225 242 220 196 192 154 147 140 165 174 146 133 120 95 71 82 130 87 56 178 150 120 354 43 114 251 290 222 187 222 238 141 195 176 218 260 264 333 311 332 301 291 88 23 41 44 56 69 67 61 56 48 37 29 27
233 231 228 234 234 229 223 211 210 210 213 224 251 282 305 336 343 331 334 334 337 342 343 347 348 353 1 18 56 25 9 245 250 230 238 218 213 203 182 192 175 200 188 166 149 140 123 106 144 154 95 40 175 140 124 37 42 124 219 266 149 199 246 267 291 272 237 241 251 79 288 273 257 219 28 11 31 45 60 58 54 67 57 47 44 35 30 29
253 254 254 252 241 234 231 220 217 220 218 224 239 250 277 322 337 333 331 329 339 339 344 351 344 356 1 66 84 22 281 221 215 221 210 204 216 204 206 219 214 217 176 171 165 152 156 161 184 179 149 181 156 131 168 177 300 203 193 238 254 274 291 294 279 269 252 244 149 166 270 289 299 130 70 354 54 49 63 58 36 53 50 42 39 32 31 30
252 268 279 274 262 260 254 230 221 225 218 217 232 241 261 310 331 324 325 330 337 336 344 343 330 355 59 104 91 314 250 177 189 229 216 224 223 213 226 237 235 226 168 161 165 155 166 188 173 146 132 132 148 132 149 161 181 183 171 226 250 294 306 264 252 263 250 247 180 218 272 315 318 52 114 319 45 43 58 50 28 47 46 37 36 33 34 33
246 251 260 275 284 287 272 243 225 222 220 221 235 239 250 297 316 318 325 327 333 337 337 328 317 328 129 125 141 222 236 202 229 231 227 247 254 237 237 237 227 215 176 155 172 172 161 172 148 116 127 152 138 84 235 185 115 126 138 286 288 319 306 272 291 294 272 257 184 193 252 340 360 43 121 347 29 54 69 52 28 44 37 29 35 33 36 32
246 248 258 273 282 287 278 252 224 217 221 223 235 237 249 281 291 310 318 323 328 333 322 315 301 215 116 90 206 226 229 210 208 199 207 276 291 252 228 216 198 189 187 157 178 183 153 163 141 104 177 149 130 59 209 184 98 113 53 337 307 345 332 313 337 316 308 298 163 163 264 347 19 51 305 351 70 73 66 55 30 40 29 27 32 32 39 31
252 267 281 282 279 288 281 252 222 214 218 224 238 242 251 277 299 309 314 319 321 329 322 310 270 179 121 310 236 229 232 228 228 232 247 260 252 217 180 173 163 155 178 148 163 174 166 171 143 110 130 116 135 187 111 64 50 274 43 34 316 352 333 305 358 334 341 89 3 77 287 313 353 326 318 326 142 78 56 47 29 32 25 28 28 32 39 31
253 267 280 287 291 296 283 247 224 217 224 244 245 241 266 283 291 295 305 310 311 319 328 354 192 153 133 246 249 239 237 235 241 241 237 224 185 153 141 134 130 128 140 132 142 152 158 159 127 101 104 89 147 135 53 14 17 322 9 41 360 356 286 294 330 334 2 74 14 80 223 264 244 328 341 337 89 100 77 47 35 31 29 27 26 33 32 30
243 257 271 283 290 295 282 242 229 220 244 273 250 247 278 279 277 287 288 282 298 138 79 90 156 133 85 276 260 250 238 226 225 218 204 194 170 142 133 128 119 114 116 117 119 122 133 138 110 93 119 4 80 93 29 349 12 32 332 307 348 165 267 308 327 33 145 13 22 101 200 272 198 316 343 353 37 103 95 61 46 35 32 31 25 32 27 24
241 254 270 278 283 290 277 238 221 206 240 283 268 274 282 282 278 266 237 205 159 147 110 101 145 127 68 275 240 232 228 209 202 197 186 182 176 154 137 129 115 112 113 108 109 110 106 101 79 82 131 58 79 90 48 358 338 360 106 244 272 199 276 322 331 346 4 71 15 68 191 282 183 270 331 16 46 89 89 62 48 38 35 39 30 33 29 21
247 255 266 269 274 279 262 232 202 179 209 274 272 296 295 290 260 210 182 155 138 129 108 123 127 109 259 229 209 264 218 185 185 182 183 179 178 163 141 121 103 107 106 100 107 98 57 55 62 339 59 61 99 97 64 315 282 308 42 219 247 213 219 307 297 341 19 89 28 39 170 259 213 114 355 17 40 78 83 62 52 48 40 42 34 38 33 27
253 259 260 258 264 264 243 215 182 164 206 268 296 351 85 90 135 149 155 146 117 83 61 105 110 90 263 210 189 221 149 157 167 166 175 168 162 160 144 121 113 107 88 67 68 65 22 29 70 81 33 24 106 112 166 226 218 194 169 186 249 239 217 263 265 286 7 22 316 328 252 260 242 88 27 13 41 80 87 78 71 57 46 47 37 42 37 31
256 260 256 253 253 243 223 198 174 165 212 258 270 116 102 68 80 133 147 142 126 117 184 203 158 140 237 221 167 140 120 135 147 154 160 151 149 145 124 110 109 101 96 94 58 87 81 54 68 140 194 196 181 179 199 201 168 169 170 154 180 231 244 237 243 258 301 330 281 245 242 263 268 22 26 15 47 83 95 82 70 54 48 47 39 42 38 42
255 255 252 248 239 225 212 191 172 175 204 236 148 126 110 65 38 324 202 183 215 206 170 191 189 184 267 243 140 134 125 124 138 158 157 154 146 129 98 80 77 69 111 151 165 120 112 133 179 207 201 201 203 199 190 154 124 130 134 139 182 221 261 246 244 286 279 194 273 249 241 269 270 303 345 344 55 73 75 72 66 56 53 41 46 46 37 45
248 249 247 237 222 210 202 185 174 179 188 188 161 138 166 172 141 277 243 253 247 239 252 219 203 243 263 158 155 152 133 99 48 155 160 162 150 141 116 67 103 101 226 161 143 69 94 168 218 225 205 199 198 175 145 123 114 114 140 183 242 226 250 262 246 308 334 185 269 348 290 275 259 253 341 357 69 54 41 77 76 61 62 42 47 43 33 38
242 245 241 223 205 200 200 189 176 172 176 186 187 201 244 209 174 212 173 283 267 239 239 239 229 255 250 162 171 165 124 119 176 191 171 159 153 175 167 96 142 172 197 137 123 76 93 215 238 231 176 119 94 144 160 167 156 142 136 171 259 234 248 288 303 336 3 181 264 5 326 276 256 77 23 35 70 56 24 60 66 61 65 40 40 39 34 33
236 238 233 215 201 199 200 190 172 169 199 204 206 212 241 255 191 139 124 293 289 243 216 214 216 226 221 215 187 170 161 178 182 221 185 160 152 189 145 131 161 142 144 181 167 158 184 244 244 209 145 131 89 115 144 148 171 187 159 175 245 223 188 269 285 321 2 93 258 354 315 280 221 75 43 47 72 74 46 54 57 53 69 55 50 46 41 40
233 232 226 211 206 202 189 178 174 207 221 220 227 217 201 194 175 156 112 303 283 269 223 207 203 204 201 201 180 174 195 197 175 204 184 165 140 155 160 156 146 136 187 199 178 183 218 243 204 111 131 157 139 113 141 148 209 232 199 203 231 210 207 237 275 306 349 26 18 28 324 295 260 117 84 61 85 71 35 56 63 44 56 63 57 49 42 42
229 231 222 205 204 194 173 174 208 224 216 222 236 222 196 186 179 170 111 18 285 286 279 214 202 209 189 160 166 171 170 213 219 199 177 171 149 138 180 152 138 185 196 170 162 210 250 229 131 97 104 145 142 163 182 167 189 272 225 213 221 206 202 226 33 31 15 357 354 44 349 296 317 320 170 146 95 57 23 53 63 36 43 53 49 39 30 35
226 230 219 204 201 180 168 203 227 212 204 224 235 213 191 187 172 162 103 32 277 262 226 196 179 183 172 147 158 145 92 241 236 138 162 176 164 126 152 137 81 198 177 137 154 214 248 209 138 132 134 144 156 205 219 166 146 275 238 206 208 182 164 167 129 106 114 253 318 49 172 261 308 316 210 162 119 54 37 50 29 8 58 59 57 33 18 19
223 225 214 207 199 177 174 227 198 181 196 234 222 193 185 179 170 170 85 3 271 189 132 214 174 159 165 170 161 138 161 231 117 92 149 170 174 85 138 174 125 186 167 125 185 237 173 136 124 145 139 149 176 218 214 161 138 225 228 154 158 165 171 171 149 153 203 246 323 357 156 239 287 279 298 89 136 27 9 285 270 210 148 90 84 29 30 3
222 223 212 209 201 184 183 188 172 177 200 214 193 181 173 168 171 148 85 265 272 98 109 248 51 108 132 103 93 117 207 150 113 201 352 109 160 57 125 193 166 162 162 145 203 263 140 159 181 165 150 182 205 216 186 162 155 234 179 117 134 152 156 145 133 154 201 44 298 296 167 234 272 267 338 19 291 292 254 232 230 203 197 179 164 210 205 255
222 220 214 212 203 191 196 209 186 194 210 169 168 172 160 159 165 81 86 224 252 82 96 121 115 49 69 96 47 53 39 32 112 231 16 91 117 58 142 196 143 136 110 127 197 242 119 204 193 154 157 204 213 256 185 172 189 183 121 93 78 78 88 98 113 129 73 70 243 247 192 203 275 279 326 46 270 254 220 220 217 193 199 195 184 198 191 202
222 220 215 208 199 195 205 228 221 205 198 174 167 162 151 149 142 100 198 223 144 92 107 108 151 136 127 132 44 359 67 33 52 60 37 99 30 32 110 139 96 119 59 22 208 242 324 293 181 139 168 189 145 61 109 153 139 134 110 77 60 44 44 51 63 91 69 290 251 247 215 182 261 276 232 188 230 207 176 193 203 184 196 202 199 196 189 190
223 222 213 203 200 197 198 226 223 205 188 179 165 149 143 125 80 166 212 229 88 113 126 137 210 142 146 147 156 178 86 38 152 116 112 139 63 48 103 116 80 82 30 343 296 301 349 348 239 175 149 131 102 65 37 52 91 110 98 92 96 8 13 29 358 41 100 254 258 282 326 177 214 258 235 220 241 201 172 182 183 182 195 200 197 194 191 192
224 223 216 209 207 200 197 215 214 205 194 172 161 144 135 161 215 209 223 4 150 196 157 162 192 164 164 133 107 151 126 105 170 131 137 144 151 168 168 173 155 95 270 222 223 334 283 239 245 136 152 138 114 83 40 25 42 84 99 104 109 354 11 9 315 326 208 249 269 339 351 214 227 249 234 214 221 215 202 194 179 178 187 193 193 191 189 189
227 225 218 214 210 203 203 209 209 206 195 169 162 161 142 179 219 218 210 214 207 186 127 121 113 140 149 123 129 166 129 147 178 141 122 113 150 203 254 205 159 123 172 187 162 160 256 280 229 143 216 180 145 137 130 167 173 159 149 127 125 101 70 277 273 286 260 259 280 313 311 242 257 262 233 203 210 225 229 245 199 183 184 186 185 182 184 188
230 225 219 216 214 212 209 206 205 203 191 170 163 189 171 198 230 194 194 220 317 45 68 97 96 109 143 159 205 179 134 192 175 132 108 116 144 206 237 240 191 112 102 142 167 171 176 264 205 166 200 185 171 171 157 148 150 179 166 128 141 148 152 216 219 211 246 279 312 305 237 193 203 266 267 237 278 298 266 259 234 190 181 171 169 173 181 189
232 225 220 215 213 214 212 208 205 196 184 168 169 193 193 217 248 105 185 196 120 49 48 70 100 113 176 253 264 200 173 204 172 132 146 162 171 195 194 211 207 164 131 155 194 162 157 253 244 191 296 165 172 191 126 117 122 206 144 110 150 179 151 163 184 172 185 292 296 244 224 220 193 251 316 325 315 328 320 244 189 180 170 155 169 184 186 196
225 219 216 211 210 211 210 208 202 189 176 161 199 208 213 217 183 167 196 155 159 142 109 85 87 114 202 242 246 226 214 132 158 155 183 189 204 198 187 212 201 188 178 158 174 160 141 269 295 23 11 119 163 193 114 119 166 150 140 169 209 178 119 118 188 102 83 284 270 201 236 291 335 277 315 19 350 328 340 204 181 176 168 168 187 194 195 203
212 207 208 209 211 210 209 207 198 185 177 174 208 213 228 225 176 168 213 104 143 143 133 171 183 156 190 196 200 213 203 124 161 171 186 197 221 192 188 238 198 191 203 169 170 198 150 174 328 66 105 358 214 145 69 21 119 124 177 205 184 121 88 102 178 23 49 246 274 258 227 263 195 249 314 18 287 266 238 205 183 179 181 188 198 199 203 208
199 190 201 214 213 209 208 205 193 181 175 199 213 220 213 206 183 144 172 151 125 147 158 199 197 172 180 186 194 190 182 180 175 177 181 194 241 188 171 207 194 194 207 168 120 234 131 124 326 27 144 291 351 95 81 9 38 117 183 184 113 129 129 96 142 198 214 246 287 287 243 239 196 204 208 207 225 221 201 198 194 194 195 197 200 202 207 209
183 165 213 216 209 208 205 199 188 177 188 200 211 226 208 195 202 155 164 168 112 157 196 215 190 156 175 177 169 169 182 185 169 175 183 182 231 201 169 179 183 199 208 164 154 210 110 135 249 306 233 254 9 81 156 208 10 34 60 54 41 130 150 147 148 159 180 233 290 288 282 257 222 201 183 198 211 193 177 192 204 204 201 198 199 198 203 205
154 152 270 189 192 200 196 188 179 182 209 205 209 214 186 187 208 181 175 183 167 184 216 221 176 163 181 178 162 171 181 178 168 183 206 177 188 208 193 173 145 170 186 151 162 136 86 137 186 262 329 181 175 203 186 181 157 109 108 128 161 87 101 165 150 111 134 175 228 275 284 267 241 195 186 202 211 186 181 192 203 207 203 202 203 201 203 202
122 196 233 152 167 177 176 173 176 194 205 231 228 207 184 167 174 174 179 167 165 220 219 185 180 182 178 178 205 182 160 157 172 188 216 191 178 187 198 162 145 153 139 140 169 175 129 134 151 154 181 187 224 261 213 198 174 156 172 186 179 150 119 140 240 192 114 174 189 198 271 271 248 182 189 205 213 196 192 194 199 204 202 203 207 204 202 198
143 197 143 142 159 161 158 170 206 171 193 220 214 195 162 139 154 171 175 142 144 171 142 155 169 176 185 192 206 172 151 161 185 189 207 198 182 169 151 57 146 151 138 144 181 183 135 106 120 166 207 208 253 299 247 227 143 118 170 188 161 145 134 153 214 223 141 198 157 114 273 280 266 175 208 224 225 207 198 196 199 207 205 204 204 195 194 199
167 155 101 145 163 162 156 192 194 172 205 192 137 106 121 135 161 166 178 184 171 158 174 197 182 182 194 192 181 177 171 173 181 182 206 197 180 160 6 354 153 140 123 135 162 150 116 107 124 193 304 320 324 336 348 4 87 107 274 172 146 161 150 163 192 165 156 199 136 93 261 266 274 216 251 254 254 236 211 204 200 205 206 201 198 197 200 201
123 107 77 157 173 173 165 177 182 197 205 123 107 167 114 89 171 168 188 192 179 161 171 186 189 188 179 151 152 188 186 179 178 179 196 188 183 15 13 1 54 130 137 162 163 168 171 142 143 150 109 344 339 336 319 331 10 189 214 167 165 130 99 89 113 103 209 198 146 167 253 252 239 290 305 316 281 247 235 219 204 205 204 198 200 207 207 198
116 100 53 161 184 191 199 181 159 179 187 148 156 178 172 216 200 197 197 183 168 166 165 184 189 151 136 128 114 142 133 98 167 181 106 136 332 5 12 1 16 121 284 323 147 162 163 165 166 167 184 201 197 194 219 238 195 195 179 179 196 157 144 152 125 140 228 187 144 204 246 261 333 281 278 302 272 244 243 229 222 225 213 205 208 210 205 196
143 116 106 136 214 226 250 236 135 158 172 167 171 182 185 195 242 328 206 179 185 160 129 164 164 116 120 137 125 156 169 59 70 120 109 121 320 352 357 3 31 59 328 354 18 124 134 185 199 187 202 204 187 198 203 148 132 183 202 191 197 189 177 163 124 178 205 157 193 230 233 249 266 235 237 259 239 232 240 220 222 235 226 219 221 216 209 203
146 144 155 147 156 203 224 229 176 161 163 172 177 179 185 190 198 306 226 215 198 160 88 26 153 149 171 162 140 161 167 87 79 129 127 128 351 341 337 11 43 357 331 346 341 81 113 214 217 197 220 213 167 182 189 148 154 188 193 202 206 193 174 171 192 209 162 152 239 236 160 214 246 211 197 236 231 223 238 228 220 229 229 224 222 215 210 207
155 138 167 127 134 195 208 195 180 152 149 170 170 160 178 187 188 192 194 17 319 171 106 13 241 191 168 160 148 144 148 146 162 161 143 125 135 77 1 24 5 330 347 11 328 78 124 218 216 185 227 221 138 153 175 157 167 182 187 211 210 185 174 185 212 217 173 196 247 230 136 212 244 179 182 217 214 207 223 221 210 212 220 217 210 210 210 207
114 82 351 22 73 185 164 146 151 146 150 161 161 173 183 189 191 186 119 92 250 240 195 205 213 189 165 156 152 155 165 173 180 177 163 144 140 136 87 37 323 334 18 63 337 68 144 214 190 170 227 236 133 149 171 151 154 203 221 228 213 187 186 195 215 220 202 225 254 251 178 238 239 167 196 217 203 201 209 189 179 190 212 214 208 213 215 210
138 133 133 73 58 63 85 123 143 150 155 162 182 191 178 186 188 169 117 163 170 204 219 209 182 170 166 165 175 195 187 150 132 153 154 144 147 158 169 184 168 41 28 115 305 305 194 185 106 133 220 276 64 101 112 120 150 234 258 251 231 200 202 213 222 219 204 235 250 247 254 261 240 180 209 226 186 182 207 212 202 208 217 214 209 214 216 212
93 71 108 111 114 147 129 131 141 153 173 186 193 174 159 192 186 154 171 216 177 174 191 170 150 154 161 181 202 214 184 130 123 145 153 160 174 180 191 183 152 144 171 179 157 198 182 162 60 101 174 257 160 118 102 71 69 276 267 258 244 220 213 218 214 199 199 223 238 234 245 256 240 175 206 225 196 195 227 232 227 226 218 207 210 215 212 208
99 52 64 95 111 174 158 136 142 166 190 189 184 174 173 191 175 152 168 234 204 192 171 145 146 148 166 204 216 211 178 157 161 163 162 158 147 157 186 183 162 154 164 171 151 123 155 148 118 134 173 254 130 133 126 82 45 268 257 250 239 227 223 222 207 204 205 204 212 227 239 245 209 166 199 228 220 220 236 237 231 234 223 206 215 219 214 212